Rexburg, ID

8:02 PM MDT on June 25, 2017 (GMT -0600)
Rexburg-Madison County

Weather History for KRXE - April, 2013

Change the Weather History Date:

Monday, April 22, 2013

  Actual Average Record
Temperature  
Mean Temperature 35 °F 45 °F  
Max Temperature 44 °F 58 °F 82 °F (2012)
Min Temperature 26 °F 33 °F 23 °F (2008)
Degree Days  
Heating Degree Days 30 20  
Month to date heating degree days 526 490  
Since 1 July heating degree days 7186 7419  
Cooling Degree Days 0 0  
Month to date cooling degree days 0 0  
Year to date cooling degree days 0 0  
Moisture  
Dew Point 18 °F    
Average Humidity 56    
Maximum Humidity 85    
Minimum Humidity 27    
Precipitation  
Precipitation T in 0.05 in 0.23 in (1988)
Month to date precipitation 0.57 1.05  
Year to date precipitation 3.01 3.68  
Sea Level Pressure  
Sea Level Pressure 30.10 in    
Wind  
Wind Speed 13 mph (NNE)    
Max Wind Speed 22 mph    
Max Gust Speed 30 mph    
Visibility 9 miles    
Events Snow    
T = Trace of Precipitation, MM = Missing Value Source: NWS Daily Summary

Daily Weather History Graph

Daily Weather History Graph

Search for Another Location

Airport or City:

Trip Planner

Search our weather history database for the weather conditions in past years. The results will help you decide how hot, cold, wet, or windy it might be!

Date:

Astronomy

Apr. 22, 2013 Rise Set
Actual Time 6:32 AM MDT 8:19 PM MDT
Civil Twilight 6:01 AM MDT 8:50 PM MDT
Nautical Twilight 5:24 AM MDT 9:28 PM MDT
Astronomical Twilight 4:44 AM MDT 10:08 PM MDT
Moon 5:07 PM MDT (4/22) 4:35 AM MDT (4/22)
Length of Visible Light 14h 48m
Length of Day
13h 47m
Waxing Gibbous, 88% of the Moon is Illuminated
Apr 22
Waxing Gibbous
Apr 25
Full
May 2
Last Quarter
May 9
New
May 17
First Quarter

Hourly Weather History & Observations

Time (MDT) Temp. Windchill Dew Point Humidity Pressure Visibility Wind Dir Wind Speed Gust Speed Precip Events Conditions
12:53 AM 39.0 °F 35.7 °F 28.0 °F 65% 29.94 in 10.0 mi North 4.6 mph - N/A   Mostly Cloudy
1:53 AM 39.9 °F 34.5 °F 27.0 °F 60% 29.94 in 10.0 mi NNE 8.1 mph - N/A   Overcast
2:53 AM 37.9 °F 32.7 °F 27.0 °F 65% 29.94 in 10.0 mi North 6.9 mph - N/A   Overcast
3:53 AM 34.0 °F 26.6 °F 26.1 °F 73% 29.96 in 10.0 mi NE 9.2 mph - N/A   Overcast
4:53 AM 30.9 °F 25.2 °F 27.0 °F 85% 29.98 in 10.0 mi NE 5.8 mph - N/A   Overcast
5:12 AM 30.2 °F 23.4 °F 26.6 °F 86% 29.99 in 10.0 mi NNE 6.9 mph - N/A   Overcast
5:49 AM 30.2 °F 24.3 °F 26.6 °F 86% 30.00 in 10.0 mi North 5.8 mph - N/A   Overcast
5:53 AM 30.9 °F 26.2 °F 26.1 °F 82% 29.99 in 10.0 mi NE 4.6 mph - N/A   Overcast
6:53 AM 28.9 °F 20.4 °F 24.1 °F 82% 30.02 in 9.0 mi NE 9.2 mph - 0.00 in   Overcast
7:51 AM 30.2 °F 21.9 °F 24.8 °F 80% 30.04 in 2.0 mi NE 9.2 mph - 0.00 in Snow Light Snow
7:53 AM 30.0 °F 21.7 °F 25.0 °F 82% 30.05 in 2.0 mi NE 9.2 mph - 0.00 in Snow Light Snow
8:11 AM 30.2 °F 23.4 °F 24.8 °F 80% 30.05 in 5.0 mi NNE 6.9 mph - 0.00 in Snow Light Snow
8:53 AM 33.1 °F 24.4 °F 18.0 °F 54% 30.08 in 10.0 mi North 11.5 mph 20.7 mph 0.00 in   Overcast
9:53 AM 36.0 °F 26.7 °F 16.0 °F 44% 30.09 in 10.0 mi North 15.0 mph 23.0 mph N/A   Mostly Cloudy
10:53 AM 37.0 °F 27.0 °F 14.0 °F 39% 30.13 in 10.0 mi NE 18.4 mph 27.6 mph N/A   Overcast
11:53 AM 37.0 °F 27.4 °F 14.0 °F 39% 30.15 in 10.0 mi NNE 17.3 mph 25.3 mph N/A   Scattered Clouds
12:53 PM 39.9 °F 31.4 °F 12.9 °F 33% 30.14 in 10.0 mi North 16.1 mph 27.6 mph N/A   Scattered Clouds
1:53 PM 42.1 °F 33.6 °F 10.9 °F 28% 30.13 in 10.0 mi NNE 18.4 mph 24.2 mph N/A   Clear
2:53 PM 43.0 °F 36.0 °F 10.0 °F 26% 30.13 in 10.0 mi NNE 13.8 mph 25.3 mph N/A   Partly Cloudy
3:53 PM 42.1 °F 34.9 °F 10.0 °F 27% 30.15 in 10.0 mi North 13.8 mph 25.3 mph N/A   Scattered Clouds
4:53 PM 43.0 °F 35.4 °F 10.0 °F 26% 30.16 in 10.0 mi NNE 16.1 mph 25.3 mph N/A   Partly Cloudy
5:53 PM 42.1 °F 33.3 °F 12.0 °F 29% 30.17 in 10.0 mi North 19.6 mph 27.6 mph N/A   Scattered Clouds
6:53 PM 39.9 °F 31.8 °F 10.0 °F 29% 30.21 in 10.0 mi North 15.0 mph 26.5 mph N/A   Clear
7:53 PM 37.0 °F 28.5 °F 9.0 °F 31% 30.24 in 10.0 mi North 13.8 mph 21.9 mph N/A   Clear
8:53 PM 34.0 °F 25.0 °F 10.9 °F 38% 30.27 in 10.0 mi North 12.7 mph 20.7 mph N/A   Clear
9:53 PM 30.9 °F 20.2 °F 10.0 °F 42% 30.30 in 10.0 mi North 15.0 mph - N/A   Clear
10:53 PM 28.9 °F 18.2 °F 10.0 °F 45% 30.31 in 10.0 mi NNE 13.8 mph 19.6 mph N/A   Clear
11:53 PM 28.0 °F 18.1 °F 10.0 °F 47% 30.32 in 10.0 mi NNE 11.5 mph - N/A   Clear